Location: Arnolds Mill
(42.3415°N, 73.5951°W)
Time: 11:15:54
(UTC+00:00)

BlueWalker 3 - Pass Details

Date: 26 June 2024
Orbit: 480 x 492 km, 53.2° (Epoch: 13 July)

Event Time Altitude Azimuth Distance (km) Brightness Sun altitude
Rises 06:02:54 0° 305° (NW) 2,539 5.8 -22.6°
Reaches altitude 10° 06:05:04 10° 302° (WNW) 1,656 4.7 -22.5°
Enters shadow 06:06:55 27° 295° (WNW) 950 3.3 -22.4°
